Oneill, NE

6:43 AM CST on February 20, 2017 (GMT -0600)
The O'Neill Municipal-Baker

Weather History for KONL - October, 2012

Change the Weather History Date:

Wednesday, October 3, 2012

  Actual Average Record
Temperature  
Mean Temperature 66 °F -  
Max Temperature 86 °F 71 °F 93 °F (1992)
Min Temperature 44 °F 42 °F 27 °F (1959)
Growing Degree Days 16 (Base 50)    
Moisture  
Dew Point 36 °F    
Average Humidity 42    
Maximum Humidity 77    
Minimum Humidity 16    
Precipitation  
Precipitation 0.00 in - - ()
Sea Level Pressure  
Sea Level Pressure 29.80 in    
Wind  
Wind Speed 14 mph (SSW)    
Max Wind Speed 30 mph    
Max Gust Speed 40 mph    
Visibility 10 miles    
Events      
Averages and records for this station are not official NWS values.
T = Trace of Precipitation, MM = Missing Value Source: NWS Daily Summary

Daily Weather History Graph

Daily Weather History Graph

Search for Another Location

Airport or City:

Trip Planner

Search our weather history database for the weather conditions in past years. The results will help you decide how hot, cold, wet, or windy it might be!

Date:

Astronomy

Oct. 03, 2012 Rise Set
Actual Time 7:34 AM CDT 7:11 PM CDT
Civil Twilight 7:06 AM CDT 7:39 PM CDT
Nautical Twilight 6:33 AM CDT 8:12 PM CDT
Astronomical Twilight 6:01 AM CDT 8:45 PM CDT
Moon 8:59 PM CDT (10/3) 11:04 AM CDT (10/3)
Length of Visible Light 12h 33m
Length of Day
11h 37m
Waning Gibbous, 88% of the Moon is Illuminated
Oct 3
Waning Gibbous
Oct 8
Last Quarter
Oct 15
New
Oct 21
First Quarter
Oct 29
Full

Hourly Weather History & Observations

Time (CDT) Temp. Windchill Dew Point Humidity Pressure Visibility Wind Dir Wind Speed Gust Speed Precip Events Conditions
12:15 AM 55.2 °F - 28.4 °F 36% 29.82 in 10.0 mi SSE 9.2 mph - N/A   Clear
12:35 AM 55.4 °F - 28.9 °F 36% 29.82 in 10.0 mi South 9.2 mph - N/A   Clear
12:55 AM 54.3 °F - 29.3 °F 38% 29.82 in 10.0 mi South 8.1 mph - N/A   Clear
1:15 AM 53.2 °F - 29.7 °F 40% 29.82 in 10.0 mi SSE 9.2 mph - N/A   Clear
1:35 AM 52.0 °F - 29.8 °F 43% 29.81 in 10.0 mi SSE 8.1 mph - N/A   Clear
1:55 AM 51.4 °F - 29.8 °F 44% 29.81 in 10.0 mi SSE 6.9 mph - N/A   Clear
2:15 AM 51.1 °F - 30.2 °F 45% 29.81 in 10.0 mi SSE 8.1 mph - N/A   Clear
2:35 AM 51.8 °F - 30.6 °F 44% 29.81 in 10.0 mi SSE 8.1 mph - N/A   Clear
2:55 AM 51.4 °F - 30.7 °F 45% 29.80 in 10.0 mi SSE 8.1 mph - N/A   Clear
3:15 AM 51.1 °F - 31.1 °F 46% 29.80 in 10.0 mi South 6.9 mph - N/A   Clear
3:35 AM 50.9 °F - 31.1 °F 47% 29.80 in 10.0 mi SSE 8.1 mph - N/A   Clear
3:55 AM 52.2 °F - 31.5 °F 45% 29.80 in 10.0 mi SSE 9.2 mph - N/A   Clear
4:15 AM 52.0 °F - 31.6 °F 46% 29.79 in 10.0 mi SSE 9.2 mph - N/A   Clear
4:35 AM 51.1 °F - 31.8 °F 48% 29.79 in 10.0 mi SSE 9.2 mph - N/A   Clear
4:55 AM 50.9 °F - 32.0 °F 48% 29.79 in 10.0 mi SSE 9.2 mph - N/A   Clear
5:15 AM 50.5 °F - 32.0 °F 49% 29.79 in 10.0 mi SSE 9.2 mph - N/A   Clear
5:35 AM 51.3 °F - 32.0 °F 48% 29.79 in 10.0 mi South 9.2 mph - N/A   Clear
5:55 AM 50.9 °F - 32.2 °F 49% 29.79 in 10.0 mi SSE 9.2 mph - N/A   Clear
6:15 AM 50.9 °F - 32.2 °F 49% 29.79 in 10.0 mi SSE 9.2 mph - N/A   Clear
6:35 AM 51.1 °F - 32.5 °F 49% 29.78 in 10.0 mi SSE 9.2 mph - N/A   Clear
6:55 AM 51.1 °F - 32.7 °F 50% 29.78 in 10.0 mi SSE 6.9 mph - N/A   Clear
7:15 AM 50.9 °F - 32.9 °F 50% 29.77 in 10.0 mi SSE 9.2 mph - N/A   Clear
7:35 AM 50.9 °F - 33.1 °F 51% 29.77 in 10.0 mi SSE 9.2 mph - N/A   Clear
7:55 AM 50.9 °F - 33.4 °F 51% 29.76 in 10.0 mi SSE 10.4 mph - N/A   Clear
8:15 AM 52.5 °F - 34.2 °F 50% 29.75 in 10.0 mi SSE 9.2 mph - N/A   Clear
8:35 AM 53.8 °F - 34.7 °F 48% 29.74 in 10.0 mi SSE 10.4 mph - N/A   Clear
8:55 AM 56.5 °F - 35.2 °F 45% 29.74 in 10.0 mi SSE 11.5 mph - N/A   Clear
9:15 AM 58.8 °F - 35.8 °F 42% 29.74 in 10.0 mi South 12.7 mph - N/A   Clear
9:35 AM 61.5 °F - 36.5 °F 39% 29.74 in 10.0 mi South 11.5 mph - N/A   Clear
9:55 AM 64.6 °F - 37.9 °F 37% 29.74 in 10.0 mi South 17.3 mph 23.0 mph N/A   Clear
10:15 AM 65.7 °F - 38.1 °F 36% 29.74 in 10.0 mi South 17.3 mph - N/A   Clear
10:35 AM 67.3 °F - 38.5 °F 35% 29.73 in 10.0 mi South 13.8 mph - N/A   Clear
10:55 AM 68.7 °F - 39.2 °F 34% 29.72 in 10.0 mi SSE 15.0 mph 21.9 mph N/A   Clear
11:15 AM 70.9 °F - 40.8 °F 34% 29.71 in 10.0 mi South 20.7 mph 26.5 mph N/A   Clear
11:35 AM 73.8 °F - 41.9 °F 32% 29.71 in 10.0 mi SSE 20.7 mph 26.5 mph N/A   Clear
11:55 AM 75.6 °F - 42.6 °F 31% 29.70 in 10.0 mi SSE 19.6 mph 26.5 mph N/A   Clear
12:15 PM 76.1 °F - 42.8 °F 30% 29.69 in 10.0 mi South 25.3 mph 33.4 mph N/A   Clear
12:35 PM 77.0 °F - 42.8 °F 29% 29.69 in 10.0 mi South 25.3 mph 32.2 mph N/A   Clear
12:55 PM 79.7 °F - 42.8 °F 27% 29.67 in 10.0 mi South 23.0 mph 32.2 mph N/A   Clear
1:15 PM 81.0 °F - 42.8 °F 26% 29.69 in 10.0 mi South 23.0 mph 32.2 mph N/A   Clear
1:35 PM 81.5 °F - 42.8 °F 25% 29.67 in 10.0 mi South 25.3 mph 32.2 mph N/A   Clear
1:55 PM 81.7 °F - 42.8 °F 25% 29.67 in 10.0 mi South 18.4 mph 29.9 mph N/A   Clear
2:15 PM 82.9 °F - 39.6 °F 21% 29.66 in 10.0 mi SSW 24.2 mph 33.4 mph N/A   Clear
2:35 PM 84.2 °F - 40.6 °F 21% 29.65 in 10.0 mi South 18.4 mph 31.1 mph N/A   Clear
2:55 PM 84.7 °F - 39.7 °F 20% 29.66 in 10.0 mi South 18.4 mph 29.9 mph N/A   Clear
3:15 PM 84.6 °F - 37.9 °F 19% 29.67 in 10.0 mi WSW 17.3 mph 26.5 mph N/A   Clear
3:35 PM 85.5 °F - 34.2 °F 16% 29.66 in 10.0 mi SSW 17.3 mph 25.3 mph N/A   Clear
3:55 PM 85.8 °F - 34.9 °F 16% 29.67 in 10.0 mi SSW 16.1 mph 21.9 mph N/A   Clear
4:15 PM 86.0 °F - 34.9 °F 16% 29.67 in 10.0 mi SW 12.7 mph 21.9 mph N/A   Clear
4:35 PM 83.3 °F - 35.8 °F 18% 29.69 in 10.0 mi WNW 23.0 mph 31.1 mph N/A   Clear
4:55 PM 79.9 °F - 36.9 °F 21% 29.71 in 10.0 mi West 20.7 mph 29.9 mph N/A   Clear
5:15 PM 76.5 °F - 37.2 °F 24% 29.74 in 10.0 mi WNW 25.3 mph 31.1 mph N/A   Clear
5:35 PM 74.3 °F - 35.6 °F 24% 29.75 in - WNW 28.8 mph - N/A   Unknown
5:55 PM 72.5 °F - 34.7 °F 25% 29.78 in 10.0 mi NW 24.2 mph 35.7 mph N/A   Clear
6:15 PM 71.6 °F - 34.0 °F 25% 29.78 in 10.0 mi NW 19.6 mph 32.2 mph N/A   Clear
6:35 PM 69.6 °F - 37.6 °F 31% 29.80 in 10.0 mi WNW 27.6 mph 39.1 mph N/A   Clear
6:55 PM 64.9 °F - 40.6 °F 41% 29.83 in 10.0 mi NW 28.8 mph 40.3 mph N/A   Clear
7:15 PM 61.2 °F - 40.5 °F 47% 29.85 in 10.0 mi NW 29.9 mph 38.0 mph N/A   Clear
7:35 PM 58.6 °F - 40.5 °F 51% 29.88 in 10.0 mi NW 26.5 mph 33.4 mph N/A   Clear
7:55 PM 55.9 °F - 40.1 °F 55% 29.90 in 10.0 mi NW 21.9 mph 34.5 mph N/A   Clear
8:15 PM 54.5 °F - 40.3 °F 59% 29.93 in 10.0 mi NW 29.9 mph 40.3 mph N/A   Clear
8:35 PM 53.2 °F - 40.5 °F 62% 29.95 in 10.0 mi NW 26.5 mph 36.8 mph N/A   Clear
8:55 PM 52.7 °F - 40.5 °F 63% 29.96 in 10.0 mi NW 26.5 mph 33.4 mph N/A   Clear
9:15 PM 51.8 °F - 41.0 °F 67% 29.97 in 10.0 mi NW 25.3 mph 33.4 mph N/A   Clear
9:35 PM 51.3 °F - 40.1 °F 66% 29.97 in 10.0 mi NW 28.8 mph 35.7 mph N/A   Clear
9:55 PM 51.1 °F - 40.1 °F 66% 30.00 in 10.0 mi NW 25.3 mph 32.2 mph N/A   Scattered Clouds
10:15 PM 52.0 °F - 40.1 °F 64% 30.04 in 10.0 mi NW 26.5 mph 39.1 mph N/A   Overcast
10:35 PM 49.8 °F - 38.5 °F 65% 30.05 in 10.0 mi NW 28.8 mph 39.1 mph N/A   Overcast
10:55 PM 47.7 °F - 38.5 °F 70% 30.07 in 10.0 mi NW 26.5 mph 36.8 mph N/A   Overcast
11:15 PM 46.6 °F - 38.3 °F 73% 30.06 in 10.0 mi NW 21.9 mph 36.8 mph N/A   Mostly Cloudy
11:35 PM 45.5 °F 36.3 °F 37.8 °F 74% 30.08 in 10.0 mi NW 27.6 mph 36.8 mph N/A   Mostly Cloudy
11:55 PM 44.4 °F 35.9 °F 37.6 °F 77% 30.09 in 10.0 mi NW 21.9 mph 31.1 mph N/A   Overcast